Roseau, MN

11:08 PM CDT on March 29, 2017 (GMT -0500)
Roseau Municipal-Billberg

Weather History for KROX - March, 2013

Change the Weather History Date:

Saturday, March 30, 2013

  Actual Average Record
Temperature  
Mean Temperature 32 °F -  
Max Temperature 42 °F 40 °F 71 °F (1967)
Min Temperature 23 °F 21 °F -17 °F (1975)
Degree Days  
Heating Degree Days 32    
Moisture  
Dew Point 25 °F    
Average Humidity 76    
Maximum Humidity 86    
Minimum Humidity 57    
Precipitation  
Precipitation 0.00 in - - ()
Sea Level Pressure  
Sea Level Pressure 29.88 in    
Wind  
Wind Speed 5 mph (West)    
Max Wind Speed 17 mph    
Max Gust Speed 23 mph    
Visibility 7 miles    
Events Fog    
Averages and records for this station are not official NWS values.
T = Trace of Precipitation, MM = Missing Value Source: NWS Daily Summary

Daily Weather History Graph

Daily Weather History Graph

Search for Another Location

Airport or City:

Trip Planner

Search our weather history database for the weather conditions in past years. The results will help you decide how hot, cold, wet, or windy it might be!

Date:

Astronomy

Mar. 30, 2013 Rise Set
Actual Time 7:03 AM CDT 7:51 PM CDT
Civil Twilight 6:32 AM CDT 8:23 PM CDT
Nautical Twilight 5:54 AM CDT 9:01 PM CDT
Astronomical Twilight 5:13 AM CDT 9:41 PM CDT
Moon No Moon Rise 8:40 AM CDT
Length of Visible Light 13h 51m
Length of Day
12h 47m
Waning Gibbous, 86% of the Moon is Illuminated
Mar 30
Waning Gibbous
Apr 2
Last Quarter
Apr 10
New
Apr 18
First Quarter
Apr 25
Full

Hourly Weather History & Observations

Time (CDT) Temp. Windchill Dew Point Humidity Pressure Visibility Wind Dir Wind Speed Gust Speed Precip Events Conditions
12:14 AM 28.4 °F 23.3 °F 24.8 °F 86% 29.98 in 5.0 mi South 4.6 mph - N/A   Clear
12:34 AM 26.6 °F - 23.0 °F 86% 29.97 in 5.0 mi Calm Calm - N/A   Clear
12:54 AM 24.8 °F - 19.4 °F 80% 29.97 in 5.0 mi Calm Calm - N/A   Clear
1:14 AM 24.8 °F - 19.4 °F 80% 29.96 in 5.0 mi Calm Calm - N/A   Scattered Clouds
1:34 AM 26.6 °F - 21.2 °F 80% 29.96 in 5.0 mi Calm Calm - N/A   Haze
1:54 AM 26.6 °F - 21.2 °F 80% 29.95 in 4.0 mi Calm Calm - N/A   Haze
2:14 AM 26.6 °F - 21.2 °F 80% 29.94 in 4.0 mi Calm Calm - N/A   Mostly Cloudy
2:34 AM 26.6 °F - 21.2 °F 80% 29.93 in 4.0 mi Calm Calm - N/A   Haze
2:54 AM 26.6 °F - 21.2 °F 80% 29.93 in 4.0 mi Calm Calm - N/A   Haze
3:14 AM 24.8 °F - 21.2 °F 86% 29.92 in 5.0 mi Calm Calm - N/A   Clear
3:34 AM 24.8 °F - 19.4 °F 80% 29.92 in 4.0 mi Calm Calm - N/A   Haze
3:54 AM 24.8 °F - 21.2 °F 86% 29.91 in 2.5 mi Calm Calm - N/A   Clear
4:14 AM 24.8 °F - 21.2 °F 86% 29.91 in 2.5 mi Calm Calm - N/A   Clear
4:35 AM 24.8 °F - 21.2 °F 86% 29.90 in 2.5 mi Calm Calm - N/A   Mostly Cloudy
4:54 AM 26.6 °F - 21.2 °F 80% 29.90 in 2.5 mi Calm Calm - N/A   Mostly Cloudy
5:14 AM 24.8 °F - 19.4 °F 80% 29.90 in 2.0 mi Calm Calm - N/A   Mostly Cloudy
5:35 AM 24.8 °F - 19.4 °F 80% 29.90 in 1.5 mi Calm Calm - N/A   Haze
5:54 AM 23.0 °F - 19.4 °F 86% 29.90 in 0.5 mi Calm Calm - N/A Fog Light Freezing Fog
6:14 AM 23.0 °F - 17.6 °F 80% 29.90 in 3.0 mi Calm Calm - N/A   Haze
6:35 AM 26.6 °F - 21.2 °F 80% 29.90 in 4.0 mi Calm Calm - N/A   Haze
6:54 AM 26.6 °F 20.0 °F 21.2 °F 80% 29.90 in 4.0 mi West 5.8 mph - N/A   Haze
7:14 AM 26.6 °F 18.2 °F 21.2 °F 80% 29.90 in 3.0 mi West 8.1 mph - N/A   Scattered Clouds
7:35 AM 26.6 °F 20.0 °F 21.2 °F 80% 29.90 in 3.0 mi West 5.8 mph - N/A   Haze
7:54 AM 28.4 °F 20.4 °F 23.0 °F 80% 29.89 in 4.0 mi West 8.1 mph - N/A   Haze
8:14 AM 28.4 °F 20.4 °F 24.8 °F 86% 29.89 in 4.0 mi West 8.1 mph - N/A   Clear
8:34 AM 28.4 °F 20.4 °F 23.0 °F 80% 29.89 in 3.0 mi West 8.1 mph - N/A   Haze
8:54 AM 28.4 °F 19.7 °F 24.8 °F 86% 29.89 in 3.0 mi West 9.2 mph - N/A   Haze
9:14 AM 28.4 °F 19.1 °F 24.8 °F 86% 29.89 in 3.0 mi West 10.4 mph - N/A   Haze
9:34 AM 28.4 °F 18.5 °F 24.8 °F 86% 29.88 in 3.0 mi West 11.5 mph - N/A   Clear
9:55 AM 30.2 °F 20.8 °F 24.8 °F 80% 29.89 in 3.0 mi West 11.5 mph - N/A   Haze
10:14 AM 30.2 °F 20.8 °F 24.8 °F 80% 29.89 in 4.0 mi West 11.5 mph - N/A   Haze
10:34 AM 30.2 °F 21.9 °F 24.8 °F 80% 29.89 in 4.0 mi West 9.2 mph - N/A   Haze
10:55 AM 30.2 °F 20.2 °F 24.8 °F 80% 29.89 in 4.0 mi West 12.7 mph - N/A   Haze
11:14 AM 32.0 °F 23.6 °F 26.6 °F 80% 29.89 in 5.0 mi West 10.4 mph - N/A   Haze
11:34 AM 33.8 °F 25.8 °F 26.6 °F 75% 29.89 in 5.0 mi West 10.4 mph - N/A   Haze
11:55 AM 35.6 °F 27.1 °F 28.4 °F 75% 29.89 in 7.0 mi West 12.7 mph - N/A   Clear
12:14 PM 35.6 °F 27.5 °F 28.4 °F 75% 29.89 in 10.0 mi West 11.5 mph - N/A   Clear
12:34 PM 37.4 °F 30.3 °F 28.4 °F 70% 29.89 in 7.0 mi West 10.4 mph - N/A   Clear
12:55 PM 39.2 °F 32.5 °F 28.4 °F 65% 29.88 in 10.0 mi West 10.4 mph - N/A   Clear
1:14 PM 39.2 °F 33.6 °F 28.4 °F 65% 29.88 in 10.0 mi West 8.1 mph - N/A   Clear
1:34 PM 39.2 °F 32.5 °F 28.4 °F 65% 29.87 in 10.0 mi West 10.4 mph - N/A   Clear
1:55 PM 41.0 °F 34.7 °F 28.4 °F 61% 29.87 in 10.0 mi West 10.4 mph - N/A   Clear
2:14 PM 42.8 °F 37.5 °F 28.4 °F 57% 29.87 in 10.0 mi West 9.2 mph - N/A   Clear
2:34 PM 42.8 °F 36.6 °F 28.4 °F 57% 29.87 in 10.0 mi West 11.5 mph 17.3 mph N/A   Clear
2:55 PM 42.8 °F 36.6 °F 28.4 °F 57% 29.87 in 10.0 mi West 11.5 mph 17.3 mph N/A   Clear
3:14 PM 42.8 °F 34.8 °F 28.4 °F 57% 29.87 in 10.0 mi West 17.3 mph 23.0 mph N/A   Clear
3:34 PM 41.0 °F 33.5 °F 28.4 °F 61% 29.87 in 10.0 mi West 13.8 mph - N/A   Clear
3:55 PM 41.0 °F 32.8 °F 28.4 °F 61% 29.87 in 10.0 mi West 16.1 mph 21.9 mph N/A   Clear
4:14 PM 41.0 °F 33.1 °F 28.4 °F 61% 29.87 in 10.0 mi West 15.0 mph 20.7 mph N/A   Clear
4:34 PM 39.2 °F 30.8 °F 28.4 °F 65% 29.87 in 10.0 mi West 15.0 mph 19.6 mph N/A   Clear
4:55 PM 39.2 °F 31.2 °F 28.4 °F 65% 29.86 in 10.0 mi West 13.8 mph - N/A   Clear
5:14 PM 39.2 °F 32.0 °F 28.4 °F 65% 29.86 in 10.0 mi West 11.5 mph - N/A   Clear
5:34 PM 39.2 °F 31.2 °F 28.4 °F 65% 29.86 in 10.0 mi West 13.8 mph - N/A   Scattered Clouds
5:55 PM 37.4 °F 29.3 °F 28.4 °F 70% 29.86 in 10.0 mi West 12.7 mph 17.3 mph N/A   Mostly Cloudy
6:14 PM 37.4 °F 29.8 °F 28.4 °F 70% 29.86 in 10.0 mi West 11.5 mph - N/A   Overcast
6:34 PM 37.4 °F 30.8 °F 28.4 °F 70% 29.85 in 10.0 mi West 9.2 mph - N/A   Overcast
6:55 PM 37.4 °F 29.8 °F 28.4 °F 70% 29.85 in 10.0 mi West 11.5 mph 17.3 mph N/A   Scattered Clouds
7:14 PM 37.4 °F 29.3 °F 28.4 °F 70% 29.85 in 10.0 mi West 12.7 mph 17.3 mph N/A   Mostly Cloudy
7:34 PM 37.4 °F 29.8 °F 28.4 °F 70% 29.84 in 10.0 mi West 11.5 mph - N/A   Overcast
7:55 PM 35.6 °F 27.5 °F 28.4 °F 75% 29.84 in 10.0 mi West 11.5 mph 17.3 mph N/A   Overcast
8:14 PM 35.6 °F 29.2 °F 28.4 °F 75% 29.84 in 10.0 mi West 8.1 mph - N/A   Unknown
8:34 PM 35.6 °F - 28.4 °F 75% 29.84 in 10.0 mi North - - N/A   Mostly Cloudy
8:55 PM 35.6 °F 29.2 °F 28.4 °F 75% 29.85 in 10.0 mi West 8.1 mph - N/A   Overcast
9:14 PM 35.6 °F 28.6 °F 28.4 °F 75% 29.84 in 10.0 mi West 9.2 mph 16.1 mph N/A   Overcast
9:34 PM 33.8 °F - 28.4 °F 81% 29.84 in 10.0 mi North - - N/A   Mostly Cloudy
9:55 PM 33.8 °F 27.0 °F 28.4 °F 81% 29.84 in 10.0 mi West 8.1 mph - N/A   Overcast
10:14 PM 33.8 °F 27.0 °F 28.4 °F 81% 29.84 in 10.0 mi West 8.1 mph - N/A   Overcast
10:33 PM 33.8 °F 27.7 °F 28.4 °F 81% 29.83 in 10.0 mi West 6.9 mph - N/A   Overcast
10:55 PM 33.8 °F 27.7 °F 28.4 °F 81% 29.83 in 10.0 mi West 6.9 mph - N/A   Overcast
11:14 PM 33.8 °F 27.0 °F 26.6 °F 75% 29.82 in 10.0 mi West 8.1 mph - N/A   Overcast
11:34 PM 32.0 °F 25.6 °F 26.6 °F 80% 29.82 in 10.0 mi West 6.9 mph - N/A   Overcast
11:55 PM 32.0 °F 24.8 °F 26.6 °F 80% 29.81 in 10.0 mi West 8.1 mph - N/A   Overcast